�������l�o���
Date,Time,MP-1(��Sv/h),MP-2(��Sv/h),MP-3(��Sv/h),MP-4(��Sv/h),MP-5(��Sv/h),MP-6(��Sv/h),MP-7(��Sv/h),MP-8(��Sv/h),����,����(m/s),���J
2017/03/17,00:00,1.009,1.659,1.126,1.963,1.359,0.543,0.997,0.926,�k�k��,3.3,��
2017/03/17,00:10,1.008,1.659,1.125,1.966,1.361,0.543,0.996,0.926,�k�k��,2.6,��
2017/03/17,00:20,1.010,1.657,1.123,1.963,1.359,0.542,0.996,0.928,�k�k��,2.9,��
2017/03/17,00:30,1.010,1.656,1.123,1.963,1.360,0.541,0.996,0.927,�k�k��,2.0,��
2017/03/17,00:40,1.010,1.658,1.126,1.964,1.360,0.542,0.997,0.927,�k�k��,3.9,��
2017/03/17,00:50,1.010,1.658,1.125,1.965,1.356,0.541,0.996,0.928,�k�k��,5.0,��
2017/03/17,01:00,1.009,1.657,1.124,1.962,1.359,0.542,0.998,0.927,�k�k��,4.9,��
2017/03/17,01:10,1.011,1.657,1.123,1.963,1.360,0.540,0.995,0.927,�k�k��,3.8,��
2017/03/17,01:20,1.009,1.657,1.123,1.963,1.358,0.543,0.997,0.928,�k,2.6,��
2017/03/17,01:30,1.009,1.657,1.123,1.960,1.357,0.543,0.998,0.928,�k,3.1,��
2017/03/17,01:40,1.009,1.657,1.125,1.963,1.357,0.541,0.996,0.928,�k�k��,2.8,��
2017/03/17,01:50,1.008,1.658,1.123,1.966,1.358,0.542,0.999,0.928,�k�k��,3.1,��
2017/03/17,02:00,1.008,1.656,1.124,1.965,1.359,0.544,0.995,0.926,�k�k��,4.7,��
2017/03/17,02:10,1.007,1.652,1.123,1.963,1.357,0.542,0.996,0.927,�k�k��,5.2,��
2017/03/17,02:20,1.011,1.655,1.124,1.963,1.358,0.542,0.995,0.929,�k�k��,5.2,��
2017/03/17,02:30,1.008,1.658,1.124,1.964,1.357,0.542,0.998,0.930,�k�k��,4.6,��
2017/03/17,02:40,1.009,1.657,1.126,1.966,1.361,0.541,0.998,0.929,�k,4.2,��
2017/03/17,02:50,1.011,1.656,1.123,1.962,1.356,0.541,0.999,0.928,�k�k��,4.0,��
2017/03/17,03:00,1.010,1.657,1.126,1.962,1.357,0.541,1.000,0.928,�k�k��,4.1,��
2017/03/17,03:10,1.007,1.655,1.124,1.966,1.357,0.543,0.998,0.928,�k,2.3,��
2017/03/17,03:20,1.007,1.657,1.126,1.966,1.358,0.541,0.998,0.925,�k�k��,2.2,��
2017/03/17,03:30,1.009,1.654,1.124,1.960,1.357,0.543,1.000,0.927,�k�k��,1.7,��
2017/03/17,03:40,1.008,1.655,1.124,1.963,1.359,0.542,0.999,0.929,�k,2.0,��
2017/03/17,03:50,1.007,1.657,1.121,1.963,1.358,0.541,0.998,0.930,�k��,5.4,��
2017/03/17,04:00,1.007,1.657,1.122,1.964,1.357,0.541,0.999,0.926,�k��,5.7,��
2017/03/17,04:10,1.006,1.655,1.122,1.964,1.360,0.541,0.997,0.927,�k�k��,5.5,��
2017/03/17,04:20,1.009,1.654,1.124,1.963,1.358,0.543,0.998,0.928,�k�k��,7.1,��
2017/03/17,04:30,1.008,1.655,1.123,1.965,1.357,0.542,0.999,0.930,�k�k��,7.0,��
2017/03/17,04:40,1.007,1.655,1.121,1.964,1.357,0.542,0.999,0.928,�k�k��,5.7,��
2017/03/17,04:50,1.008,1.655,1.121,1.963,1.359,0.541,0.997,0.929,�k�k��,4.3,��
2017/03/17,05:00,1.009,1.658,1.123,1.966,1.358,0.543,0.998,0.930,�k��,4.7,��
2017/03/17,05:10,1.006,1.657,1.121,1.967,1.357,0.542,0.998,0.928,�k�k��,7.5,��
2017/03/17,05:20,1.009,1.656,1.123,1.967,1.358,0.543,0.999,0.928,�k�k��,8.0,��
2017/03/17,05:30,1.005,1.657,1.121,1.964,1.356,0.541,0.999,0.927,�k��,7.6,��
2017/03/17,05:40,1.005,1.657,1.126,1.967,1.357,0.540,0.999,0.927,�k��,7.0,��
2017/03/17,05:50,1.006,1.655,1.125,1.965,1.357,0.541,0.999,0.929,�k��,5.9,��
2017/03/17,06:00,1.006,1.656,1.121,1.963,1.357,0.541,1.000,0.928,�k�k��,5.1,��
2017/03/17,06:10,1.005,1.654,1.121,1.965,1.357,0.541,1.000,0.928,�k�k��,5.1,��
2017/03/17,06:20,1.005,1.656,1.121,1.967,1.356,0.540,0.998,0.928,�k��,5.4,��
2017/03/17,06:30,1.007,1.655,1.123,1.965,1.355,0.542,1.000,0.929,�k��,6.2,��
2017/03/17,06:40,1.006,1.656,1.121,1.967,1.354,0.541,0.999,0.929,���k��,6.2,��
2017/03/17,06:50,1.009,1.656,1.123,1.962,1.356,0.541,1.000,0.930,�k��,6.2,��
2017/03/17,07:00,1.007,1.658,1.123,1.967,1.353,0.544,1.000,0.928,�k��,4.9,��
2017/03/17,07:10,1.009,1.657,1.123,1.965,1.357,0.542,0.999,0.930,�k��,2.5,��
2017/03/17,07:20,1.009,1.661,1.122,1.966,1.357,0.542,1.000,0.930,�쓌,0.8,��
2017/03/17,07:30,1.010,1.659,1.122,1.967,1.357,0.541,0.999,0.930,��,2.8,��
2017/03/17,07:40,1.008,1.655,1.127,1.967,1.359,0.542,1.000,0.929,���쓌,2.9,��
2017/03/17,07:50,1.009,1.660,1.125,1.969,1.359,0.543,1.001,0.929,��,1.2,��
2017/03/17,08:00,1.011,1.660,1.127,1.968,1.360,0.543,1.000,0.930,���쐼,0.9,��
2017/03/17,08:10,1.006,1.661,1.126,1.969,1.361,0.541,0.998,0.931,�k��,2.5,��
2017/03/17,08:20,0.995,1.660,1.126,1.969,1.360,0.545,0.999,0.930,�k��,1.5,��
2017/03/17,08:30,0.995,1.660,1.127,1.968,1.362,0.542,1.000,0.929,�k��,5.6,��
2017/03/17,08:40,0.996,1.663,1.128,1.970,1.364,0.543,1.001,0.931,�k�k��,7.5,��
2017/03/17,08:50,1.011,1.660,1.128,1.968,1.365,0.541,0.999,0.930,�k��,8.4,��
2017/03/17,09:00,1.012,1.660,1.128,1.966,1.362,0.541,0.999,0.931,���k��,5.9,��
2017/03/17,09:10,1.013,1.662,1.128,1.969,1.361,0.543,0.999,0.931,���k��,6.5,��
2017/03/17,09:20,1.012,1.665,1.129,1.971,1.364,0.544,0.999,0.929,���k��,7.4,��
2017/03/17,09:30,1.014,1.661,1.129,1.975,1.362,0.544,0.999,0.931,���k��,4.5,��
2017/03/17,09:40,1.017,1.666,1.132,1.974,1.365,0.544,1.001,0.931,�k��,4.5,��
2017/03/17,09:50,1.017,1.663,1.134,1.970,1.362,0.545,1.000,0.929,�k��,7.2,��
2017/03/17,10:00,1.015,1.665,1.135,1.972,1.362,0.545,1.000,0.929,�k�k��,6.6,��
2017/03/17,10:10,1.017,1.665,1.133,1.975,1.368,0.545,1.002,0.929,�k�k��,7.8,��
2017/03/17,10:20,1.017,1.666,1.136,1.975,1.367,0.546,1.000,0.931,�k�k��,6.5,��
2017/03/17,10:30,1.016,1.667,1.136,1.975,1.368,0.546,1.000,0.930,�k��,6.1,��
2017/03/17,10:40,1.019,1.667,1.137,1.977,1.370,0.544,1.001,0.928,�k��,8.2,��
2017/03/17,10:50,1.021,1.672,1.136,1.976,1.369,0.544,1.001,0.931,�k��,7.8,��
2017/03/17,11:00,1.021,1.673,1.136,1.977,1.368,0.544,0.999,0.928,�k��,8.8,��
2017/03/17,11:10,1.019,1.671,1.139,1.977,1.370,0.544,1.000,0.930,�k��,8.6,��
2017/03/17,11:20,1.021,1.669,1.138,1.979,1.369,0.542,1.002,0.928,�k��,8.3,��
2017/03/17,11:30,1.020,1.669,1.137,1.980,1.370,0.544,1.003,0.930,�k��,10.3,��
2017/03/17,11:40,1.020,1.671,1.139,1.977,1.369,0.544,1.003,0.930,�k��,10.5,��
2017/03/17,11:50,1.020,1.672,1.140,1.978,1.369,0.545,1.002,0.929,�k��,10.9,��
2017/03/17,12:00,1.024,1.671,1.139,1.978,1.371,0.545,1.001,0.928,�k��,8.8,��
2017/03/17,12:10,1.022,1.672,1.141,1.982,1.371,0.544,1.000,0.928,�k��,10.8,��
2017/03/17,12:20,1.025,1.672,1.140,1.981,1.371,0.545,1.002,0.931,�k��,10.2,��
2017/03/17,12:30,1.025,1.672,1.144,1.981,1.374,0.544,1.001,0.932,�k��,9.6,��
2017/03/17,12:40,1.027,1.673,1.140,1.982,1.375,0.548,1.003,0.933,�k��,9.9,��
2017/03/17,12:50,1.023,1.674,1.136,1.982,1.372,0.546,1.003,0.935,�k��,9.9,��
2017/03/17,13:00,1.022,1.678,1.139,1.981,1.374,0.546,1.000,0.934,�k��,7.8,��
2017/03/17,13:10,1.023,1.671,1.143,1.983,1.372,0.546,1.002,0.933,�k��,6.4,��
2017/03/17,13:20,1.022,1.675,1.140,1.983,1.373,0.546,1.002,0.930,�k��,9.4,��
2017/03/17,13:30,1.024,1.674,1.143,1.985,1.370,0.547,1.002,0.930,�k��,7.3,��
2017/03/17,13:40,1.026,1.676,1.142,1.985,1.369,0.545,1.003,0.933,�k�k��,9.6,��
2017/03/17,13:50,1.026,1.680,1.141,1.983,1.371,0.548,1.005,0.933,�k�k��,8.7,��
2017/03/17,14:00,1.024,1.676,1.141,1.982,1.361,0.546,1.002,0.932,�k�k��,9.4,��
2017/03/17,14:10,1.026,1.674,1.141,1.986,1.371,0.547,1.001,0.932,�k�k��,7.6,��
2017/03/17,14:20,1.025,1.676,1.140,1.986,1.362,0.546,1.003,0.931,�k�k��,7.9,��
2017/03/17,14:30,1.026,1.676,1.139,1.986,1.368,0.546,1.003,0.932,�k��,7.7,��
2017/03/17,14:40,1.026,1.675,1.143,1.984,1.368,0.547,1.002,0.930,�k��,8.9,��
2017/03/17,14:50,1.025,1.676,1.142,1.983,1.370,0.547,1.000,0.931,�k��,10.4,�L
2017/03/17,15:00,1.027,1.678,1.143,1.986,1.367,0.546,1.002,0.935,�k��,5.2,��
2017/03/17,15:10,1.027,1.684,1.143,1.987,1.372,0.546,1.002,0.933,�k��,8.5,��
2017/03/17,15:20,1.028,1.683,1.143,1.984,1.377,0.546,1.002,0.935,�k��,9.9,��
2017/03/17,15:30,1.027,1.682,1.146,1.986,1.379,0.546,1.002,0.934,�k��,7.8,��
2017/03/17,15:40,1.025,1.680,1.146,1.984,1.375,0.545,1.003,0.934,�k��,8.2,��
2017/03/17,15:50,1.026,1.680,1.145,1.985,1.378,0.546,1.001,0.932,���k��,7.7,��
2017/03/17,16:00,1.026,1.681,1.144,1.988,1.375,0.548,1.002,0.934,�k��,9.0,��
2017/03/17,16:10,1.028,1.680,1.144,1.986,1.379,0.548,1.002,0.934,�k��,7.6,��
2017/03/17,16:20,1.025,1.683,1.143,1.987,1.378,0.547,1.001,0.932,�k��,7.8,��
2017/03/17,16:30,1.028,1.681,1.144,1.985,1.376,0.546,1.000,0.934,���k��,9.3,��
2017/03/17,16:40,1.027,1.681,1.143,1.984,1.378,0.547,1.000,0.933,���k��,7.8,��
2017/03/17,16:50,1.023,1.681,1.143,1.985,1.376,0.547,1.002,0.934,���k��,7.1,��
2017/03/17,17:00,1.025,1.681,1.142,1.987,1.378,0.547,1.003,0.934,��,5.1,��
2017/03/17,17:10,1.025,1.680,1.143,1.989,1.374,0.547,1.002,0.933,��,4.0,��
2017/03/17,17:20,1.025,1.682,1.145,1.986,1.375,0.547,1.005,0.932,��,3.3,��
2017/03/17,17:30,1.026,1.681,1.143,1.987,1.379,0.547,1.004,0.932,�k��,2.5,��
2017/03/17,17:40,1.026,1.680,1.143,1.988,1.375,0.546,1.004,0.932,���k��,2.3,��
2017/03/17,17:50,1.022,1.684,1.141,1.984,1.375,0.546,1.003,0.932,���k��,3.0,��
2017/03/17,18:00,1.024,1.678,1.144,1.986,1.375,0.546,1.005,0.933,�k��,3.0,��
2017/03/17,18:10,1.023,1.679,1.140,1.986,1.375,0.546,1.004,0.931,�k��,2.9,��
2017/03/17,18:20,1.024,1.676,1.140,1.983,1.374,0.547,1.005,0.932,���k��,3.8,��
2017/03/17,18:30,1.023,1.679,1.139,1.983,1.375,0.548,1.001,0.932,��,4.6,��
2017/03/17,18:40,1.022,1.677,1.142,1.983,1.374,0.546,1.001,0.930,��,4.8,��
2017/03/17,18:50,1.023,1.679,1.140,1.985,1.375,0.546,1.003,0.932,���k��,4.6,��
2017/03/17,19:00,1.022,1.678,1.142,1.982,1.372,0.545,1.003,0.931,�k��,4.3,��
2017/03/17,19:10,1.024,1.676,1.142,1.982,1.374,0.544,1.004,0.931,�k��,6.4,��
2017/03/17,19:20,1.022,1.681,1.139,1.984,1.374,0.544,1.003,0.930,�k��,6.6,��
2017/03/17,19:30,1.023,1.678,1.144,1.987,1.374,0.547,1.002,0.931,�k��,7.7,��
2017/03/17,19:40,1.021,1.680,1.142,1.985,1.375,0.547,1.003,0.930,���k��,8.3,��
2017/03/17,19:50,1.023,1.681,1.142,1.986,1.373,0.545,1.002,0.931,���k��,6.8,��
2017/03/17,20:00,1.022,1.679,1.140,1.982,1.376,0.547,1.002,0.931,���k��,5.1,��
2017/03/17,20:10,1.020,1.680,1.141,1.981,1.374,0.545,1.001,0.931,���k��,3.1,��
2017/03/17,20:20,1.021,1.678,1.140,1.983,1.372,0.544,1.003,0.931,���k��,3.0,��
2017/03/17,20:30,1.022,1.676,1.142,1.985,1.374,0.545,1.001,0.932,�k��,4.0,��
2017/03/17,20:40,1.020,1.679,1.140,1.984,1.373,0.546,1.003,0.931,�k��,5.9,��
2017/03/17,20:50,1.022,1.678,1.139,1.985,1.370,0.546,1.002,0.930,�k��,6.6,��
2017/03/17,21:00,1.018,1.678,1.141,1.984,1.373,0.543,1.004,0.932,�k��,5.4,��
2017/03/17,21:10,1.022,1.680,1.141,1.985,1.374,0.544,1.000,0.930,�k��,5.6,��
2017/03/17,21:20,1.023,1.679,1.143,1.984,1.374,0.546,1.001,0.932,�k��,7.2,��
2017/03/17,21:30,1.028,1.677,1.140,1.987,1.374,0.546,1.001,0.932,�k��,6.5,��
2017/03/17,21:40,1.023,1.678,1.142,1.986,1.374,0.546,1.002,0.930,�k��,7.9,��
2017/03/17,21:50,1.025,1.679,1.141,1.982,1.372,0.542,1.002,0.930,�k��,8.0,��
2017/03/17,22:00,1.021,1.679,1.140,1.986,1.373,0.545,1.003,0.931,���k��,7.3,��
2017/03/17,22:10,1.021,1.679,1.143,1.987,1.371,0.545,1.001,0.931,���k��,6.5,��
2017/03/17,22:20,1.023,1.677,1.139,1.984,1.372,0.544,1.003,0.932,�k��,7.0,��
2017/03/17,22:30,1.021,1.676,1.140,1.988,1.372,0.545,1.004,0.931,�k��,6.3,��
2017/03/17,22:40,1.022,1.680,1.141,1.983,1.374,0.545,1.004,0.931,���k��,6.8,��
2017/03/17,22:50,1.020,1.678,1.141,1.985,1.373,0.545,1.005,0.931,�k��,6.0,��
2017/03/17,23:00,1.024,1.680,1.142,1.984,1.374,0.545,1.001,0.930,�k��,4.5,��
2017/03/17,23:10,1.021,1.679,1.139,1.987,1.372,0.546,1.003,0.932,�k��,4.9,��
2017/03/17,23:20,1.022,1.677,1.139,1.983,1.374,0.546,1.005,0.931,�k��,4.8,��
2017/03/17,23:30,1.022,1.677,1.142,1.981,1.374,0.545,1.003,0.930,�k��,4.1,��
2017/03/17,23:40,1.022,1.678,1.141,1.983,1.376,0.546,1.003,0.930,�k��,2.7,��
2017/03/17,23:50,1.020,1.676,1.139,1.983,1.374,0.546,1.003,0.931,�k��,3.6,��
